| DS18B20 | SHTC3 | PZEM-004T | WiFi | ||||||||
|---|---|---|---|---|---|---|---|---|---|---|---|
| ID | Date d/m/Y & Time | data1 สูง | data2 ต่ำ | data3 นอก | temp pcb | hum pcb | Volt | Amp | Watt | rssi | Time |
| 789 | 06/07/2026 13:07:51 | 33.4  | 33.1  | 35.3  | 33.9  | 65.4  | 233.1  | 0.04  | 4.7  | -64  | 13:07 |
| 788 | 06/07/2026 13:03:07 | 33.3  | 33.1  | 35.0  | 33.8  | 65.4  | 233.5  | 0.04  | 4.7  | -63  | 13:03 |
| 787 | 06/07/2026 12:58:24 | 33.2  | 33.0  | 35.3  | 34.0  | 65.3  | 234.4  | 0.04  | 4.7  | -65  | 12:58 |
| 786 | 06/07/2026 12:53:41 | 33.2  | 32.9  | 35.4  | 33.8  | 65.5  | 234.4  | 0.04  | 4.7  | -65  | 12:53 |
| 785 | 06/07/2026 12:48:59 | 33.1  | 32.9  | 35.0  | 33.7  | 65.4  | 234.6  | 0.04  | 4.7  | -65  | 12:48 |
| 784 | 06/07/2026 12:44:16 | 33.1  | 32.9  | 35.0  | 33.6  | 65.5  | 234.3  | 0.04  | 4.6  | -65  | 12:44 |
| 783 | 06/07/2026 12:39:33 | 33.0  | 32.8  | 34.9  | 33.5  | 65.5  | 234.3  | 0.04  | 4.7  | -66  | 12:39 |
| 782 | 06/07/2026 12:34:51 | 32.9  | 32.7  | 34.5  | 33.5  | 65.5  | 234.7  | 0.04  | 4.7  | -67  | 12:34 |
| 781 | 06/07/2026 12:30:08 | 32.9  | 32.6  | 34.8  | 33.3  | 65.5  | 234.9  | 0.04  | 4.7  | -66  | 12:30 |
| 780 | 06/07/2026 12:25:25 | 32.8  | 32.6  | 34.9  | 33.3  | 65.6  | 234.3  | 0.04  | 4.6  | -66  | 12:25 |
| 779 | 06/07/2026 12:20:42 | 32.8  | 32.6  | 35.0  | 33.3  | 65.7  | 234.6  | 0.04  | 4.7  | -66  | 12:20 |
| 778 | 06/07/2026 12:15:59 | 32.7  | 32.5  | 35.0  | 33.2  | 65.7  | 234.7  | 0.04  | 4.7  | -66  | 12:15 |
| 777 | 06/07/2026 12:11:17 | 32.6  | 32.4  | 34.7  | 33.1  | 65.8  | 235.3  | 0.04  | 4.7  | -66  | 12:11 |
| 776 | 06/07/2026 12:06:35 | 32.6  | 32.4  | 34.6  | 33.2  | 65.8  | 236.5  | 0.04  | 4.7  | -67  | 12:06 |
| 775 | 06/07/2026 12:01:52 | 32.6  | 32.3  | 34.7  | 33.0  | 65.6  | 234.5  | 0.04  | 4.7  | -67  | 12:01 |
| 774 | 06/07/2026 11:57:10 | 32.4  | 32.2  | 34.7  | 32.9  | 65.8  | 234.1  | 0.04  | 4.7  | -68  | 11:57 |
| 773 | 06/07/2026 11:52:27 | 32.4  | 32.2  | 34.6  | 32.8  | 65.7  | 234.0  | 0.04  | 4.6  | -67  | 11:52 |
| 772 | 06/07/2026 11:47:44 | 32.4  | 32.1  | 34.4  | 32.8  | 65.7  | 233.9  | 0.04  | 4.6  | -67  | 11:47 |
| 771 | 06/07/2026 11:43:01 | 32.3  | 32.1  | 34.5  | 32.7  | 65.7  | 233.7  | 0.04  | 4.6  | -66  | 11:43 |
| 770 | 06/07/2026 11:38:18 | 32.2  | 32.0  | 34.4  | 32.7  | 65.8  | 233.4  | 0.04  | 4.6  | -66  | 11:38 |
| 769 | 06/07/2026 11:33:35 | 32.2  | 31.9  | 34.5  | 32.8  | 65.9  | 233.9  | 0.04  | 4.6  | -67  | 11:33 |
| 768 | 06/07/2026 11:28:52 | 32.1  | 31.9  | 34.4  | 32.7  | 65.9  | 233.3  | 0.04  | 4.7  | -67  | 11:28 |
| 767 | 06/07/2026 11:24:10 | 32.0  | 31.8  | 34.1  | 32.5  | 65.7  | 234.0  | 0.04  | 4.7  | -67  | 11:24 |
| 766 | 06/07/2026 11:19:27 | 31.9  | 31.7  | 33.7  | 32.6  | 65.8  | 233.9  | 0.04  | 4.6  | -67  | 11:19 |